Miscellaneous Local Product
Issued by NWS Hastings, NE

Home | Current Version | Previous Version | Text Only | Print | Product List | Glossary On
Versions: 1 2 3 4 5 6 7 8 9 10 11 12 13 14 15 16 17 18 19 20 21 22 23 24 25 26 27 28 29 30 31 32 33 34 35 36 37 38 39 40 41 42 43 44 45 46 47 48 49 50
375
AXUS43 KGID 211102
MISGRI

GID CWA HOURLY WEATHER ROUNDUP
NATIONAL WEATHER SERVICE HASTINGS NE
500 AM CST SUN JAN 21 2018

NOTE: "FAIR" INDICATES FEW OR NO CLOUDS BELOW 12,000 FEET WITH NO
SIGNIFICANT WEATHER AND/OR OBSTRUCTIONS TO VISIBILITY.

...SOUTH CENTRAL NEBRASKA...

CITY           SKY/WX    TMP DP  RH WIND       PRES   REMARKS
GRAND ISLAND   CLOUDY    33  31  92 N12       29.80F WCI  24
KEARNEY        CLOUDY    32  29  88 N14       29.78F WCI  22
HASTINGS       CLOUDY    34  31  88 NE13      29.77F FOG     WCI  25
ORD            CLOUDY    33  29  85 N14       29.82F WCI  23
YORK           CLOUDY    36  36 100 NE10      29.79F WCI  28
AURORA         CLOUDY    34  31  89 N9        29.79S WCI  27
LEXINGTON      CLOUDY    33  29  86 N12       29.81S WCI  25
HOLDREGE       CLOUDY    32  32 100 N12       29.77S FOG     WCI  23
HEBRON         CLOUDY    40  39  97 NE7       29.75F FOG

...NEBRASKA PANHANDLE...

CITY           SKY/WX    TMP DP  RH WIND       PRES   REMARKS
CHADRON        LGT SNOW  30  29  96 N8        29.94F VSB 1   WCI  22
ALLIANCE       LGT SNOW  28  28 100 NE16G26   29.87S FOG     WCI  16
SCOTTSBLUFF    LGT SNOW  30  28  92 N14       29.89S FOG     WCI  19
SIDNEY         LGT SNOW  30  28  92 NE13      29.85R FOG     WCI  20

...WESTERN AND NORTH CENTRAL NEBRASKA...

CITY           SKY/WX    TMP DP  RH WIND       PRES   REMARKS
VALENTINE      CLOUDY    34  32  92 N16       29.91F WCI  24
AINSWORTH      CLOUDY    32  32  97 N14       29.89S WCI  22
ONEILL         CLOUDY    32  32 100 N10       29.88S WCI  24
BROKEN BOW     MOCLDY    33  28  81 N13       29.82S WCI  24
IMPERIAL       CLOUDY    31  29  92 NE16      29.81S WCI  20
NORTH PLATTE   MOCLDY    34  29  82 NE17      29.81F WCI  23
MCCOOK         CLOUDY    32  28  85 N15       29.78F WCI  22

...EASTERN NEBRASKA...

CITY           SKY/WX    TMP DP  RH WIND       PRES   REMARKS
NORFOLK        CLOUDY    36  30  79 CALM      29.84S
SO SIOUX CITY  CLOUDY    31  29  92 N8        29.88F WCI  23
TEKAMAH        CLOUDY    36  30  79 N10       29.85F WCI  28
COLUMBUS       CLOUDY    35  31  85 N8        29.83F WCI  29
ALBION         PTCLDY    30  28  92 CALM      29.84S
OMAHA EPPLEY   CLOUDY    39  36  89 N9        29.83F WCI  33
OFFUTT AFB     CLOUDY    39  37  90 NE8       29.80F WCI  34
MILLARD        CLOUDY    42  38  87 CALM      29.82S
LINCOLN        CLOUDY    39  36  89 N7        29.82R WCI  34
NEBRASKA CITY  CLOUDY    40  40 100 NE6       29.79S FOG
BEATRICE       FOG       40  40 100 NE7       29.77S VSB 1/2
FALLS CITY     FOG       40  40 100 E6        29.77F VSB 1/4

...NORTHERN KANSAS...

CITY           SKY/WX    TMP DP  RH WIND       PRES   REMARKS
GOODLAND       CLOUDY    30  27  88 N14       29.75S WCI  19
HILL CITY      CLOUDY    35  35 100 N13       29.73F FOG     WCI  26
NORTON         CLOUDY    34  28  80 N16       29.73F FOG     WCI  23
PHILLIPSBURG   CLOUDY    37  37 100 N10       29.75R FOG     WCI  30
SMITH CENTER   CLOUDY    36  36 100 N10G18    29.73S FOG     WCI  28
BELOIT         FOG       37  37 100 NE10      29.70F VSB 1/4 WCI  30
HAYS           LGT RAIN  36  35  96 N9        29.70R VSB 1/4 WCI  29
RUSSELL        FOG       35  35 100 N12       29.67S VSB 1/4 WCI  27
CONCORDIA      FOG       37  37 100 E7        29.71S VSB 1/4 WCI  32
SALINA         FOG       31  30  96 CALM      29.68S VSB 1/4
TOPEKA         CLOUDY    46  46 100 E7        29.75F FOG



USA.gov is the U.S. government's official web portal to all federal, state and local government web resources and services.